Location: Krakow
(50.0830°N, 19.9170°E)
Time: 04:31:58
(UTC+01:00)

Altair - All Passes

Search period start: 01 December 2023 00:00
Search period end: 11 December 2023 00:00
Orbit: 1501 x 1682 km, 47.2° (Epoch: 29 November)

Date Brightness Start Highest point End Pass type
(mag) Time Alt. Az. Time Alt. Az. Time Alt. Az.
01 Dec - 07:48:33 10° S 07:56:14 28° SE 08:03:42 10° E daylight
01 Dec - 09:50:21 10° SW 09:59:39 60° SSE 10:08:40 10° E daylight
01 Dec - 11:54:33 10° W 12:03:56 76° S 12:13:06 10° E daylight
01 Dec - 13:59:09 10° W 14:08:07 56° SSW 14:16:58 10° SE daylight
01 Dec - 16:04:27 10° W 16:11:17 24° SW 16:18:08 10° S visible
02 Dec - 07:23:44 10° S 07:31:10 26° SE 07:38:24 10° E daylight
02 Dec - 09:25:13 10° SW 09:34:30 58° SSE 09:43:30 10° E daylight
02 Dec - 11:29:20 10° W 11:38:45 76° S 11:47:56 10° E daylight
02 Dec - 13:33:57 10° W 13:43:00 58° SSW 13:51:53 10° SE daylight
02 Dec - 15:39:07 10° W 15:46:15 26° SW 15:53:22 10° S daylight
03 Dec - 06:58:56 10° S 07:06:06 24° SE 07:13:05 10° E daylight
03 Dec - 09:00:05 10° SW 09:09:22 55° SSE 09:18:19 10° E daylight
03 Dec - 11:04:07 10° W 11:13:34 76° S 11:22:46 10° E daylight
03 Dec - 13:08:45 10° W 13:17:51 61° SSW 13:26:48 10° SE daylight
03 Dec - 15:13:48 10° W 15:21:12 28° SW 15:28:34 10° S daylight
04 Dec - 06:34:12 10° S 06:41:03 22° SE 06:47:44 10° E visible
04 Dec - 08:34:58 10° SW 08:44:13 53° SSE 08:53:09 10° E daylight
04 Dec - 10:38:54 10° W 10:48:24 76° S 10:57:36 10° E daylight
04 Dec - 12:43:32 10° W 12:52:43 63° SSW 13:01:42 10° ESE daylight
04 Dec - 14:48:30 10° W 14:56:09 30° SW 15:03:44 10° SSE daylight
05 Dec - 06:09:30 10° S 06:15:59 20° SE 06:22:21 10° E visible
05 Dec - 08:09:53 10° SW 08:19:04 51° SSE 08:27:58 10° E daylight
05 Dec - 10:13:42 10° WSW 10:23:13 75° S 10:32:25 10° E daylight
05 Dec - 12:18:19 10° W 12:27:33 65° SSW 12:36:35 10° ESE daylight
05 Dec - 14:23:14 10° W 14:31:05 33° SW 14:38:52 10° SSE daylight
06 Dec - 05:44:52 10° SSE 05:50:57 19° SE 05:56:55 10° E visible
06 Dec - 07:44:48 10° SW 07:53:56 48° SSE 08:02:47 10° E daylight
06 Dec - 09:48:29 10° WSW 09:58:02 74° S 10:07:15 10° E daylight
06 Dec - 11:53:07 10° W 12:02:25 67° SSW 12:11:28 10° ESE daylight
06 Dec - 13:57:57 10° W 14:06:01 35° SW 14:13:59 10° SSE daylight
07 Dec - 05:20:18 10° SSE 05:25:55 17° SE 05:31:25 10° E visible
07 Dec - 07:19:44 10° SW 07:28:49 46° SSE 07:37:35 10° E daylight
07 Dec - 09:23:17 10° WSW 09:32:51 73° S 09:42:05 10° E daylight
07 Dec - 11:27:53 10° W 11:37:15 69° SSW 11:46:21 10° ESE daylight
07 Dec - 13:32:42 10° W 13:40:57 37° SW 13:49:04 10° SSE daylight
07 Dec - 15:41:47 10° WSW 15:43:20 10° WSW 15:44:53 10° SW daylight
08 Dec - 04:55:51 10° SSE 05:00:53 15° SE 05:05:49 10° E visible
08 Dec - 06:54:41 10° SSW 07:03:41 44° SSE 07:12:24 10° E daylight
08 Dec - 08:58:04 10° WSW 09:07:40 72° S 09:16:55 10° E daylight
08 Dec - 11:02:40 10° W 11:12:05 70° SSW 11:21:13 10° ESE daylight
08 Dec - 13:07:27 10° W 13:15:52 40° SW 13:24:07 10° SSE daylight
08 Dec - 15:15:14 10° WSW 15:18:21 12° WSW 15:21:27 10° SW daylight
09 Dec - 04:31:32 10° SSE 04:35:51 14° SE 04:40:06 10° E visible
09 Dec - 06:29:39 10° SSW 06:38:34 41° SE 06:47:12 10° E visible
09 Dec - 08:32:52 10° WSW 08:42:29 71° SSE 08:51:45 10° E daylight
09 Dec - 10:37:27 10° W 10:46:55 72° SSW 10:56:05 10° ESE daylight
09 Dec - 12:42:12 10° W 12:50:46 42° SW 12:59:09 10° SSE daylight
09 Dec - 14:49:17 10° W 14:53:21 14° SW 14:57:24 10° SSW daylight
10 Dec - 04:07:27 10° SE 04:10:50 12° ESE 04:14:10 10° ESE visible
10 Dec - 06:04:38 10° SSW 06:13:27 39° SE 06:21:59 10° E visible
10 Dec - 08:07:40 10° WSW 08:17:19 70° SSE 08:26:35 10° E daylight
10 Dec - 10:12:13 10° W 10:21:44 73° S 10:30:56 10° ESE daylight
10 Dec - 12:16:57 10° W 12:25:40 45° SSW 12:34:11 10° SE daylight
10 Dec - 14:23:33 10° W 14:28:22 15° SW 14:33:07 10° SSW daylight
